Regional Weather Roundup
Issued by NWS Newport/Morehead, NC

Current Version |  Previous Version |  Text Only |  Print | Product List |  Glossary On
Versions: 1 2 3 4 5 6 7 8 9 10 11 12 13 14 15 16 17 18 19 20 21 22 23 24 25 26 27 28 29 30 31 32 33 34 35 36 37 38 39 40 41 42 43 44 45 46 47 48 49 50
917
ASUS42 KMHX 280315
RWRMHX
WEATHER ROUNDUP FOR EASTERN NORTH CAROLINA
NATIONAL WEATHER SERVICE NEWPORT/MOREHEAD CITY NC
1100 PM EDT MON MAY 27 2024

NOTE: "FAIR" INDICATES FEW OR NO CLOUDS BELOW 12,000 FEET
WITH NO SIGNIFICANT WEATHER AND/OR OBSTRUCTIONS TO VISIBILITY

NCZ015>017-031-032-045>047-102-103-280400-
NORTH COAST

CITY           SKY/WX    TMP DP  RH WIND       PRES   REMARKS
EDENTON        PTCLDY    75  75 100 SW3       29.84S
ELIZABETH CITY PTCLDY    72  69  90 S6        29.82S
KITTY HAWK     PTCLDY    72  72  99 SW9       29.82F
MANTEO         PTCLDY    75  71  88 W15       29.84S

$$

NCZ045>047-081-094-103-104-280400-
CENTRAL COAST

CITY           SKY/WX    TMP DP  RH WIND       PRES   REMARKS
FRISCO         PTCLDY    75  74  96 SW13G23   29.86S
ENGELHARD      PTCLDY    79  72  77 SW12      29.85R

$$

NCZ095-097-098-100-101-280400-
SOUTHERN COAST

CITY           SKY/WX    TMP DP  RH WIND       PRES   REMARKS
PINEY ISLAND   PTCLDY    84  75  74 SW10      29.87R
HAVELOCK       PTCLDY    77  72  84 SW9       29.88R
BEAUFORT       PTCLDY    79  73  82 SW10      29.89R
CAPE CARTERET  PTCLDY    77  73  87 SW12G21   29.89R
JACKSONVILLE   NOT AVBL
WILMINGTON     PTCLDY    79  72  79 SW8       29.90R


$$

NCZ011>013-027>030-043-044-078>080-089-090>093-098-280400-
COASTAL PLAIN

CITY           SKY/WX    TMP DP  RH WIND       PRES   REMARKS
AHOSKIE          N/A     67  67 100 CALM      29.82F FOG
TARBORO        PTCLDY    75  68  78 SW6       29.84S
WILLIAMSTON    PTCLDY    73  70  93 SW7       29.84S
ROCKY MOUNT    PTCLDY    71  70  96 S5        29.85S FOG
GREENVILLE     PTCLDY    75  73  94 SW6       29.85S
WASHINGTON     PTCLDY    77  70  79 SW10      29.86R
GOLDSBORO      PTCLDY    74  66  76 S3        29.87S
KINSTON        PTCLDY    75  72  91 CALM      29.88R
MOUNT OLIVE    PTCLDY    73  70  91 S8        29.89R
NEW BERN       PTCLDY    77  71  82 SW8       29.88R
KENANSVILLE    PTCLDY    75  72  88 SW3       29.89R
RICHLANDS      PTCLDY    75  71  87 S6        29.89R
WALLACE        PTCLDY    77  73  88 S7        29.89R
CLINTON        PTCLDY    76  71  84 CALM      29.89R
ELIZABETHTOWN  PTCLDY    77  67  71 S7        29.91R
WHITEVILLE     PTCLDY    79  72  78 S7        29.92R

$$

AMZ130-135-150-152-154-156-158-170-250-252-270-ANZ085-086-088-633-658-670-280400-
MARINE OBSERVATIONS

STATION/POSITION TIME  TEMP    WIND        PRES    WAVE   SWELL
                       AIR SEA DIR/SP/G            HT/PER HT/PER
                 (UTC) (F)     (DEG/KT/KT) (MB)    (FT/S) (FT/S)
64 E VA BEACH    0250   61 57  190/ 10/ 12 1010.1    4/ 4   2/ 5
64 E VA BEACH    0200      55                N/A     4/ 4
DUCK PIER        0230   72     190/  7/  9 1010.1
2 E DUCK         0256      63                N/A     2/ 8
10 NE DUCK       0200      67                N/A     2/ 8
OREGON INLET     0230   78 80  220/ 18/ 20 1011.4
13E OREGON INLT  0256      68                N/A     4/ 5   2/ 8
13E CAPE HATTERA 0200      70                N/A     5/ 5
HATTERAS CG      0230   74 78  220/ 12/ 16 1011.9
DIAMOND BUOY     0250      70  210/ 16/ 19 1011.5
CAPE LOOKOUT     0300   76     220/ 13/ 18 1012.3
BEAUFORT LAB     0230   77 78  240/ 10/ 15 1011.5
30 SE NEW RVR IN 0208   77 75  220/ 14/ 17 1012.6
30 SE NEW RVR IN 0256      75                N/A     4/ 6
27 SE WRIGHTSVLE 0208   78 76  210/ 17/ 23 1012.8
5 SE WRIGHTSVLE  0208   77 74  210/ 16/ 19 1011.8
27 SE WRIGHTSVL  0208   78 76  210/ 17/ 23 1012.8
FRYING PAN BUOY  0250   78 76  220/ 14/ 16 1013.7    4/ 6   2/ 7
225 S CAPE HAT   0300   78 78  200/ 17/ 19 1014.9
41 SE CHARLESTON 0250   80     210/ 12/ 16 1013.8    3/ 4

$$